Helicity
32 26 31 35 29 25 34 39 55 53 61 77 89 96 104 103 109 119 122 97 87 95
30 32 28 30 22 18 17 20 32 57 76 88 99 115 117 95 102 93 110 122 142 154
29 21 16 19 28 25 27 40 41 68 97 86 97 103 105 131 131 107 96 101 136 116
49 37 29 23 19 23 17 20 27 25 35 64 58 44 54 93 125 86 81 117 66 99
42 46 37 36 34 32 31 30 35 44 45 41 53 79 91 73 55 89 78 55 22 103
56 47 51 45 37 35 35 45 52 55 56 57 67 84 82 102 119 135 104 82 55 54
71 70 60 45 38 34 32 35 41 45 46 50 63 76 103 120 124 122 132 124 107 115
87 78 67 62 61 54 51 48 41 47 54 52 53 74 87 81 82 78 83 106 117 105
101 91 76 68 60 57 53 51 53 59 59 68 66 97 108 98 85 82 84 82 78 64
128 113 96 86 77 70 63 57 61 66 68 74 64 99 102 107 88 92 90 88 86 82
138 121 100 94 91 83 77 84 82 78 72 70 74 87 110 111 91 83 84 81 77 79
142 122 93 95 93 89 98 95 95 80 82 85 83 89 114 116 101 88 76 70 67 65
177 145 117 101 97 100 96 95 83 87 97 91 94 106 131 109 91 88 78 70 64 69
186 147 119 117 102 103 98 93 102 108 111 110 107 108 112 102 92 83 79 69 51 45
Wind_Speed
58 58 57 58 58 59 60 61 63 64 65 65 66 68 67 62 61 63 63 62 55 73
56 57 57 57 56 56 58 60 63 61 61 62 63 65 66 63 62 60 58 57 61 67
52 54 54 54 57 59 59 60 61 62 61 60 59 62 62 61 61 61 57 53 56 60
42 49 50 53 55 57 58 60 61 61 62 62 61 58 58 60 62 61 60 59 55 56
31 45 52 54 55 56 58 59 60 60 60 60 59 57 56 56 57 59 60 60 58 57
35 38 47 54 56 57 58 60 61 61 61 60 58 59 55 54 54 54 53 53 55 55
36 38 40 44 48 54 57 58 59 60 60 60 59 58 57 54 52 51 49 49 53 55
33 38 42 46 48 50 52 52 52 54 56 56 56 57 56 54 53 51 50 50 51 52
30 35 41 46 50 52 54 54 54 54 55 55 55 56 56 54 52 51 51 51 52 52
25 30 35 39 45 49 52 52 52 52 53 54 54 55 55 54 52 52 51 52 54 54
25 28 33 38 42 44 46 49 50 50 50 50 51 52 55 54 53 52 53 53 54 55
23 30 35 38 41 41 45 44 46 46 46 47 48 52 53 54 54 57 57 55 56 55
21 25 29 34 39 41 41 43 44 43 41 43 45 48 48 49 51 56 58 57 57 58
23 27 32 35 37 39 41 42 43 41 40 39 41 42 45 46 46 47 48 52 59 58
Wind_Direction
349 348 347 344 343 340 336 334 331 332 330 328 327 325 325 323 325 323 322 319 309 299
349 350 351 351 352 351 347 343 340 339 338 338 337 336 331 329 329 331 332 330 325 310
353 348 350 354 352 351 351 351 349 347 347 346 345 345 341 336 336 339 342 340 334 326
9 356 355 351 350 352 350 349 349 348 347 344 345 347 344 340 340 341 342 344 344 335
26 5 352 353 354 353 350 350 350 350 349 350 349 348 346 345 343 340 339 339 342 339
17 17 5 355 352 351 349 348 349 349 349 349 349 349 350 350 349 348 347 346 340 339
6 9 10 8 3 356 353 351 350 349 348 348 348 349 349 349 350 350 350 351 350 341
4 4 3 3 3 3 2 2 2 359 358 357 356 354 352 350 349 349 348 348 349 350
3 3 2 360 358 358 359 359 0 360 360 359 359 358 358 357 355 352 348 346 346 347
3 4 5 5 2 1 0 360 360 0 0 360 360 359 357 356 353 351 349 345 340 338
353 357 1 2 3 4 5 3 2 0 0 1 1 360 357 355 351 347 344 341 338 335
344 347 352 356 358 3 1 4 3 1 1 2 3 3 1 358 352 343 338 338 334 330
338 347 351 355 355 358 1 1 3 3 5 3 2 3 6 5 1 351 344 339 334 328
333 340 345 348 352 354 356 359 359 1 4 6 6 6 6 7 5 3 0 352 337 330